Moses Lake, WA
on Sunday, November 11, 2012

Sunday
Previous Day Next Day
Daily Summary
 ActualAverageRecord
Temperature
Mean Temperature °F 39°F  
Max Temperature 35°F 49°F 58°F (2013)
Min Temperature 20°F 30°F 10°F (1985)
Degree Days
Heating Degree Days 37 26  
Month to date heating degree days 232 262  
Since 1 July heating degree days 757 899  
Cooling Degree Days 0 0  
Month to date cooling degree days 0 0  
Year to date cooling degree days 719 615  
Moisture
Dew Point 26°F   
Average Humidity 84    
Maximum Humidity 92    
Minimum Humidity 75    
Precipitation
Precipitation 0.19 in 0.04 in 0.69 in (1983)
Month to date precipitation 0.29 0.42  
Year to date precipitation 6.89 6.89  
Wind
Wind Speed 2 mph   
Max Wind Speed 7 mph   
Max Gust Speed 9 mph   
Visibility 4 miles   
Events Fog , Snow   

Key: T is trace of precipitation, MM is missing value
Source: NWS Daily Summary
Time(PST)TemperatureDew PointHumidity Pressure Visibility Wind DirectionWind SpeedGust SpeedPrecipitationEvents Conditions
12:41 AM 24.8°F 21.2°F 86% 30.22 in 2.0 miles Calm Calm - N/A   Clear
12:52 AM 25.0°F 21.0°F 85% 30.27 in 7.0 miles Calm Calm - N/A   Clear
1:52 AM 21.0°F 17.1°F 85% 30.27 in 10.0 miles Calm Calm - N/A   Clear
2:52 AM 23.0°F 18.0°F 81% 30.27 in 8.0 miles Calm Calm - N/A   Clear
3:52 AM 19.9°F 15.1°F 81% 30.28 in 10.0 miles North 4.6 mph - N/A   Clear
4:19 AM 19.4°F 15.8°F 86% 30.24 in 10.0 miles North 4.6 mph - N/A   Scattered Clouds
4:28 AM 21.2°F 17.6°F 86% 30.24 in 10.0 miles North 4.6 mph - N/A   Mostly Cloudy
4:52 AM 23.0°F 19.0°F 85% 30.30 in 10.0 miles North 3.5 mph - N/A   Overcast
5:52 AM 25.0°F 21.0°F 85% 30.30 in 9.0 miles Calm Calm - N/A   Overcast
6:28 AM 26.6°F 23.0°F 86% 30.26 in 1.8 miles Calm Calm - N/A   Overcast
6:45 AM 26.6°F 24.8°F 93% 30.26 in 0.5 miles SSE 3.5 mph - N/A Fog Light Freezing Fog
6:52 AM 27.0°F 23.0°F 85% 30.31 in 0.5 miles Calm Calm - N/A Fog Light Freezing Fog
7:02 AM 26.6°F 24.8°F 93% 30.26 in 0.2 miles SE 4.6 mph - N/A Fog Light Freezing Fog
7:14 AM 26.6°F 24.8°F 93% 30.26 in 0.5 miles SE 4.6 mph - N/A Fog Light Freezing Fog
7:30 AM 26.6°F 24.8°F 93% 30.27 in 1.5 miles SSE 3.5 mph - N/A   Overcast
7:52 AM 27.0°F 25.0°F 92% 30.32 in 1.0 miles Calm Calm - N/A   Overcast
8:03 AM 26.6°F 24.8°F 93% 30.28 in 0.8 miles Calm Calm - N/A   Overcast
8:12 AM 28.4°F 24.8°F 86% 30.28 in 1.5 miles Calm Calm - N/A   Overcast
8:25 AM 28.4°F 24.8°F 86% 30.28 in 2.0 miles Calm Calm - N/A   Overcast
8:50 AM 28.4°F 24.8°F 86% 30.29 in 0.8 miles SE 3.5 mph - N/A   Overcast
8:52 AM 27.0°F 24.1°F 89% 30.33 in 0.5 miles Calm Calm - N/A Fog Light Freezing Fog
9:01 AM 28.4°F 24.8°F 86% 30.28 in 0.2 miles ESE 3.5 mph - N/A Fog Light Freezing Fog
9:09 AM 28.4°F 24.8°F 86% 30.29 in 1.0 miles ESE 3.5 mph - N/A   Overcast
9:20 AM 28.4°F 26.6°F 93% 30.29 in 2.0 miles Calm Calm - N/A   Overcast
9:31 AM 28.4°F 24.8°F 86% 30.29 in 1.5 miles ESE 3.5 mph - N/A   Overcast
9:52 AM 28.0°F 26.1°F 92% 30.35 in 1.8 miles Calm Calm - N/A   Overcast
10:02 AM 28.4°F 26.6°F 93% 30.30 in 2.5 miles Calm Calm - N/A   Overcast
10:33 AM 28.4°F 26.6°F 93% 30.31 in 3.0 miles Calm Calm - N/A   Overcast
10:52 AM 28.9°F 27.0°F 92% 30.36 in 4.0 miles Calm Calm - N/A   Overcast
11:52 AM 30.0°F 27.0°F 88% 30.34 in 4.0 miles Calm Calm - N/A   Overcast
12:52 PM 32.0°F 28.9°F 88% 30.34 in 5.0 miles Calm Calm - N/A   Overcast
1:37 PM 33.8°F 28.4°F 81% 30.31 in 6.0 miles NW 3.5 mph - N/A   Haze
1:52 PM 33.1°F 28.9°F 85% 30.35 in 7.0 miles Calm Calm - N/A   Overcast
2:52 PM 35.1°F 28.9°F 78% 30.35 in 7.0 miles Calm Calm - N/A   Overcast
3:17 PM 35.6°F 28.4°F 75% 30.30 in 6.0 miles NE 3.5 mph - N/A   Haze
3:36 PM 35.6°F 28.4°F 75% 30.30 in 6.0 miles Calm Calm - N/A   Haze
3:52 PM 35.1°F 28.9°F 78% 30.35 in 7.0 miles NNE 3.5 mph - N/A   Overcast
4:52 PM 34.0°F 28.9°F 82% 30.35 in 8.0 miles North 3.5 mph - N/A   Overcast
5:52 PM 33.1°F 28.0°F 82% 30.35 in 8.0 miles North 6.9 mph - N/A   Overcast
6:52 PM 33.1°F 28.0°F 82% 30.34 in 8.0 miles NNW 3.5 mph - N/A   Overcast
7:50 PM 33.8°F 28.4°F 81% 30.29 in 1.5 miles NNW 4.6 mph - 0.01 in Snow Light Snow
7:52 PM 33.1°F 28.9°F 85% 30.34 in 1.5 miles NNW 3.5 mph - 0.01 in Snow Light Snow
8:33 PM 33.8°F 30.2°F 87% 30.29 in 1.0 miles Calm Calm - 0.03 in Snow Light Snow
8:52 PM 33.1°F 30.0°F 89% 30.33 in 1.0 miles North 3.5 mph - 0.04 in Snow Light Snow
9:00 PM 33.8°F 30.2°F 87% 30.28 in 0.8 miles Calm Calm - 0.01 in Snow Light Snow
9:04 PM 33.8°F 30.2°F 87% 30.28 in 1.0 miles Calm Calm - 0.01 in Snow Light Snow
9:21 PM 33.8°F 30.2°F 87% 30.28 in 0.8 miles Calm Calm - 0.02 in Snow Light Snow
9:42 PM 33.8°F 30.2°F 87% 30.28 in 1.0 miles East 4.6 mph - 0.04 in Snow Light Snow
9:52 PM 33.1°F 30.0°F 89% 30.32 in 1.2 miles East 3.5 mph - 0.04 in Snow Light Snow
10:27 PM 33.8°F 30.2°F 87% 30.27 in 1.5 miles ESE 3.5 mph - N/A Snow Light Snow
10:52 PM 33.1°F 30.0°F 89% 30.31 in 1.8 miles ESE 3.5 mph - 0.03 in Snow Light Snow
11:31 PM 33.8°F 30.2°F 87% 30.26 in 0.8 miles Calm Calm - 0.04 in Snow Light Snow
11:52 PM 33.1°F 30.9°F 92% 30.30 in 0.8 miles Calm Calm - 0.06 in Snow Light Snow
Moon Phase
Nov. 11 Nov. 13 Nov. 20 Nov. 28 Dec. 06
Sunrise:06:56 AM (PST) Moon Rise:04:08 AM (PST)11/11
Sunset:04:25 PM (PST) Moon Set:02:58 PM (PST)11/11

Copyright © 2014 The Weather Underground, Inc.